Location: Burzi?i
(45.0869°N, 16.0577°E)
Time: 11:07:14
(UTC+00:00)

Geosat - Pass Details

Date: 29 October 2020
Orbit: 763 x 766 km, 108.0° (Epoch: 27 November)

Event Time Altitude Azimuth Distance (km) Brightness Sun altitude
Exits shadow 17:52:54 48° 52° (NE) 1,004 4.2 -22.6°
Maximum altitude 17:54:13 68° 116° (ESE) 823 3.9 -22.9°
Drops below altitude 10° 17:59:13 10° 199° (SSW) 2,297 6.6 -23.7°
Sets 18:01:30 0° 202° (SSW) 3,219 7.5 -24.1°
